Weather History for Cahokia, IL

Change the Weather History Date:

Saturday, January 12, 2013

  Actual Average Record
Temperature  
Mean Temperature 45 °F -  
Max Temperature 57 °F 44 °F 69 °F (2005)
Min Temperature 32 °F 28 °F 1 °F (1997)
Degree Days  
Heating Degree Days 20    
Moisture  
Dew Point 41 °F    
Average Humidity 79    
Maximum Humidity 93    
Minimum Humidity 57    
Precipitation  
Precipitation 1.29 in - - ()
Sea Level Pressure  
Sea Level Pressure 29.89 in    
Wind  
Wind Speed 7 mph (NNW)    
Max Wind Speed 22 mph    
Max Gust Speed 28 mph    
Visibility 8 miles    
Events Rain    
Averages and records for this station are not official NWS values.
T = Trace of Precipitation, MM = Missing Value Source: NWS Daily Summary

Daily Weather History Graph

Daily Weather History Graph

Search for Another Location

Airport:

Trip Planner

Search our weather history database for the weather conditions in past years. The results will help you decide how hot, cold, wet, or windy it might be!

Date:

Astronomy

Jan. 12, 2013 Rise Set
Actual Time 7:17 AM CST 5:00 PM CST
Civil Twilight 6:48 AM CST 5:29 PM CST
Nautical Twilight 6:15 AM CST 6:02 PM CST
Astronomical Twilight 5:43 AM CST 6:34 PM CST
Moon 7:37 AM CST (1/12) 6:28 PM CST (1/12)
Length of Visible Light 10h 41m
Length of Day
9h 43m
New Moon, 1% of the Moon is Illuminated
Jan 12
New Moon
Jan 18
First Quarter
Jan 26
Full
Feb 3
Last Quarter
Feb 10
New

Hourly Weather History & Observations

Time (CST) Temp. Windchill Dew Point Humidity Pressure Visibility Wind Dir Wind Speed Gust Speed Precip Events Conditions
12:53 AM 57.0 °F - 48.0 °F 72% 29.83 in 10.0 mi South 4.6 mph - N/A   Unknown
1:53 AM 57.0 °F - 48.0 °F 72% 29.85 in 10.0 mi SSW 3.5 mph - N/A   Unknown
2:53 AM 55.0 °F - 46.9 °F 74% 29.86 in 10.0 mi South 3.5 mph - N/A   Unknown
3:53 AM 53.1 °F - 46.9 °F 80% 29.86 in 10.0 mi SSE 4.6 mph - N/A   Unknown
4:53 AM 53.1 °F - 46.9 °F 80% 29.86 in 10.0 mi Calm Calm - N/A   Unknown
5:53 AM 55.0 °F - 48.0 °F 77% 29.87 in 10.0 mi SW 3.5 mph - N/A   Unknown
6:53 AM 53.1 °F - 46.9 °F 80% 29.90 in 10.0 mi Calm Calm - N/A   Unknown
7:53 AM 48.9 °F - 46.0 °F 90% 29.93 in 10.0 mi Calm Calm - N/A   Unknown
8:53 AM 51.1 °F - 48.0 °F 89% 29.93 in 10.0 mi Calm Calm - N/A   Clear
9:53 AM 57.0 °F - 50.0 °F 77% 29.95 in 10.0 mi Calm Calm - N/A   Clear
10:48 AM 57.2 °F - 48.2 °F 72% 29.96 in 10.0 mi NNW 6.9 mph - N/A   Mostly Cloudy
10:53 AM 57.9 °F - 46.9 °F 67% 29.95 in 10.0 mi North 5.8 mph - N/A   Mostly Cloudy
11:53 AM 57.9 °F - 46.9 °F 67% 29.92 in 10.0 mi North 10.4 mph - N/A   Overcast
12:19 PM 57.2 °F - 46.4 °F 67% 29.92 in 10.0 mi North 10.4 mph - N/A   Overcast
12:53 PM 57.0 °F - 42.1 °F 57% 29.91 in 10.0 mi North 10.4 mph - N/A   Mostly Cloudy
1:53 PM 53.1 °F - 39.0 °F 59% 29.91 in 9.0 mi NNW 6.9 mph - 0.00 in Rain Light Rain
2:37 PM 48.2 °F - 41.0 °F 76% 29.90 in 8.0 mi North 11.5 mph - 0.04 in Rain Light Rain
2:53 PM 48.0 °F - 39.9 °F 74% 29.91 in 7.0 mi North 13.8 mph - 0.05 in Rain Light Rain
3:17 PM 46.4 °F 41.1 °F 37.4 °F 71% 29.91 in 10.0 mi North 11.5 mph - 0.01 in Rain Light Rain
3:53 PM 45.0 °F 39.7 °F 36.0 °F 71% 29.89 in 10.0 mi North 10.4 mph - 0.01 in Rain Light Rain
4:53 PM 42.1 °F 34.9 °F 36.0 °F 79% 29.88 in 6.0 mi North 13.8 mph - 0.09 in Rain Rain
5:18 PM 42.8 °F 35.8 °F 37.4 °F 81% 29.84 in 4.0 mi North 13.8 mph - 0.09 in Rain Rain
5:44 PM 41.0 °F 34.3 °F 37.4 °F 87% 29.86 in 2.5 mi NNW 11.5 mph - 0.23 in Rain Heavy Rain
5:53 PM 41.0 °F 33.9 °F 37.9 °F 89% 29.87 in 2.5 mi NNW 12.7 mph - 0.32 in Rain Heavy Rain
6:09 PM 41.0 °F 35.8 °F 37.4 °F 87% 29.85 in 4.0 mi NNW 8.1 mph - 0.06 in Rain Rain
6:53 PM 39.9 °F 31.1 °F 37.0 °F 89% 29.86 in 8.0 mi NNW 17.3 mph - 0.16 in Rain Rain
7:22 PM 39.2 °F 29.8 °F 35.6 °F 87% 29.86 in 4.0 mi NNW 18.4 mph 23.0 mph 0.10 in Rain Rain
7:53 PM 37.9 °F 28.5 °F 35.1 °F 89% 29.89 in 5.0 mi NNW 17.3 mph 21.9 mph 0.23 in Rain Rain
8:38 PM 35.6 °F 24.5 °F 33.8 °F 93% 29.88 in 5.0 mi NNW 20.7 mph 25.3 mph 0.23 in Rain Rain
8:53 PM 35.1 °F 24.8 °F 32.0 °F 89% 29.88 in 3.0 mi North 17.3 mph 25.3 mph 0.30 in Rain Rain
9:53 PM 34.0 °F 22.1 °F 30.0 °F 85% 29.89 in 3.0 mi NNW 21.9 mph 27.6 mph 0.12 in Rain Rain
10:53 PM 33.1 °F 21.9 °F 28.9 °F 85% 29.94 in 10.0 mi NW 18.4 mph - 0.01 in Rain Light Rain
11:53 PM 32.0 °F 22.5 °F 28.9 °F 88% 29.94 in 10.0 mi NNW 12.7 mph - 0.00 in   Overcast